Probability
12 13 14 17 17 13 11 12 13 13 16 20 19 15 13 14 15 13 11 10 13 16 14 9 6 6 7 7 5 5 4 3 1 0 0 0 0 0 0 0 0 0 0
5 7 11 13 13 11 9 9 9 9 11 14 13 10 9 10 11 9 8 8 10 12 12 9 5 4 4 4 3 3 3 2 1 0 0 0 0 0 0 0 0 0 0
0 2 5 7 7 7 6 5 4 4 5 5 5 4 5 6 7 5 4 5 7 9 9 7 4 2 1 1 1 1 1 1 0 0 0 0 0 0 0 0 0 0 0
1 1 2 3 3 4 4 3 1 0 1 1 1 2 3 4 5 3 2 3 4 6 6 4 2 1 0 0 0 0 0 0 0 0 0 0 0 0 0 0 0 0 0
1 1 1 1 1 2 2 1 0 0 0 0 0 1 1 1 2 1 1 1 2 3 2 2 1 0 0 0 0 0 0 0 0 0 0 0 0 0 0 0 0 0 0
1 0 0 0 0 1 1 0 0 0 0 0 0 0 0 0 0 0 0 0 0 0 0 0 0 0 0 0 0 0 0 0 0 0 0 0 0 0 0 0 0 0 0
0 0 0 0 0 0 0 0 0 0 0 0 0 0 0 0 0 0 0 0 0 0 0 0 0 0 0 0 0 0 0 0 0 0 0 0 0 0 0 0 0 0 0
0 0 0 0 0 0 0 0 0 0 0 0 0 0 0 0 0 0 0 0 0 0 0 0 0 0 0 0 0 0 0 0 0 0 0 0 0 0 0 0 0 0 0
0 0 0 0 0 0 0 0 0 0 0 0 0 0 0 0 0 0 0 0 0 0 0 0 0 0 0 0 0 0 0 0 0 0 0 0 0 0 0 0 0 0 0
0 0 0 0 0 0 0 0 0 0 0 0 0 0 0 0 0 0 0 0 0 0 0 0 0 0 0 0 0 0 0 0 0 0 0 0 0 0 0 0 0 0 0
0 0 0 0 0 0 0 0 0 0 0 0 0 0 0 0 0 0 0 0 0 0 0 0 0 0 0 0 0 0 0 0 0 0 0 0 0 0 0 0 0 0 0
0 0 0 0 0 0 0 0 0 0 0 0 0 0 0 0 0 0 0 0 0 0 0 0 0 0 0 0 0 0 0 0 0 0 0 0 0 0 0 0 0 0 0
0 0 0 0 0 0 0 0 0 0 0 0 0 0 0 0 0 0 0 0 0 0 0 0 0 0 0 0 0 0 0 0 0 0 0 0 0 0 0 0 0 0 0
0 0 0 0 0 0 0 0 0 0 0 0 0 0 0 0 0 0 0 0 0 0 0 0 0 0 0 0 0 0 0 0 0 0 0 0 0 0 0 0 0 0 0
0 0 0 0 0 0 0 0 0 0 0 0 0 0 0 0 0 0 0 0 0 0 0 0 0 0 0 0 0 0 0 0 0 0 0 0 0 0 0 0 0 0 0
0 0 0 0 0 0 0 0 0 0 0 0 0 0 0 0 0 0 0 0 0 0 0 0 0 0 0 0 0 0 0 0 0 0 0 0 0 0 0 0 0 0 0
0 0 0 0 0 0 0 0 0 0 0 0 0 0 0 0 0 0 0 0 0 0 0 0 0 0 0 0 0 0 0 0 0 0 0 0 0 0 0 0 0 0 0
0 0 0 0 0 0 0 0 0 0 0 0 0 0 0 0 0 0 0 0 0 0 0 0 0 0 0 0 0 0 0 0 0 0 0 0 0 0 0 0 0 0 0
0 0 0 0 0 0 0 0 0 0 0 0 0 0 0 0 0 0 0 0 0 0 0 0 0 0 0 0 0 0 0 0 0 0 0 0 0 0 0 0 0 0 0
0 0 0 0 0 0 0 0 0 0 0 0 0 0 0 0 0 0 0 0 0 0 0 0 0 0 0 0 0 0 0 0 0 0 0 0 0 0 0 0 0 0 0
0 0 0 0 0 0 0 0 0 0 0 0 0 0 0 0 0 0 0 0 0 0 0 0 0 0 0 0 0 0 0 0 0 0 0 0 0 0 0 0 0 0 0
0 0 0 0 0 0 0 0 0 0 0 0 0 0 0 0 0 0 0 0 0 0 0 0 0 0 0 0 0 0 0 0 0 0 0 0 0 0 0 0 0 0 0
0 0 0 0 0 0 0 0 0 0 0 0 0 0 0 0 0 0 0 0 0 0 0 0 0 0 0 0 0 0 0 0 0 0 0 0 0 0 0 0 0 0 0
0 0 0 0 0 0 0 0 0 0 0 0 0 0 0 0 0 0 0 0 0 0 0 0 0 0 0 0 0 0 0 0 0 0 0 0 0 0 0 0 0 0 0
0 0 0 0 0 0 0 0 0 0 0 0 0 0 0 0 0 0 0 0 0 0 0 0 0 0 0 0 0 0 0 0 0 0 0 0 0 0 0 0 0 0 0
0 0 0 0 0 0 0 0 0 0 0 0 0 0 0 0 0 0 0 0 0 0 0 0 0 0 0 0 0 0 0 0 0 0 0 0 0 0 0 0 0 0 0
Wind_Speed
6 6 7 7 6 6 6 5 5 4 2 1 1 1 1 2 1 1 3 3 3 3 3 3 3 3 3 4 3 2 2 2 1 0 2 3 3 2 2 3 3 3 4
7 8 8 8 7 7 6 6 6 5 4 2 0 0 0 1 1 1 1 1 1 2 3 3 3 3 3 3 3 3 2 1 2 2 0 2 3 2 1 1 1 2 2
7 7 7 7 7 7 6 5 5 6 5 4 2 1 2 2 2 3 2 3 2 2 2 3 3 3 4 4 4 4 4 3 2 2 2 2 2 2 3 2 1 2 1
5 5 6 6 6 5 4 5 5 5 4 3 4 4 2 1 1 2 2 3 3 3 2 2 2 3 3 4 4 4 4 4 3 2 2 2 2 2 2 3 2 3 3
4 4 4 4 4 3 3 3 4 4 3 3 4 3 2 0 1 2 3 3 3 3 3 2 2 3 3 4 4 4 5 4 4 4 3 2 2 2 2 3 3 3 3
2 2 2 2 3 2 2 1 2 2 2 2 2 2 1 1 2 2 3 2 2 2 3 3 2 3 3 4 5 5 6 5 5 4 4 4 3 4 4 5 4 4 3
1 1 2 3 3 2 2 1 0 1 1 1 1 0 0 0 1 2 2 2 2 2 3 3 3 3 4 5 4 5 6 6 6 6 5 5 5 4 4 4 3 4 3
3 3 4 4 4 4 3 3 2 2 2 2 2 2 2 2 2 3 2 2 2 3 4 4 4 4 5 5 4 5 6 5 7 7 6 5 5 5 5 4 3 3 3
4 4 4 5 5 5 5 4 4 4 5 4 4 4 4 4 4 4 4 3 4 4 4 4 4 4 4 4 4 4 5 5 6 6 7 5 5 5 5 5 5 4 4
5 5 5 5 5 5 5 5 5 6 6 6 5 5 5 6 5 5 5 6 5 5 5 5 5 5 5 4 4 4 5 5 6 5 6 6 5 5 5 5 5 5 5
6 6 5 5 5 5 5 6 7 7 7 7 7 7 7 6 6 6 7 7 6 6 6 6 5 5 5 5 4 5 5 5 6 5 6 7 6 5 5 5 6 6 6
6 6 6 5 6 6 7 7 8 8 9 8 8 8 8 7 7 8 8 7 7 7 7 6 6 7 6 5 5 6 5 5 6 6 6 8 6 7 6 6 7 7 7
7 6 6 6 7 7 8 8 8 9 9 8 8 8 9 9 9 10 9 8 8 8 7 7 7 7 7 6 6 6 6 6 7 6 7 7 7 8 7 7 7 6 6
7 7 7 8 8 8 9 9 9 9 9 8 8 9 10 10 10 10 9 9 8 8 8 8 8 8 8 7 7 7 6 7 7 7 7 7 8 9 9 8 8 7 7
9 9 9 9 9 9 9 9 10 10 9 9 9 11 11 10 10 10 10 10 9 10 9 9 9 8 7 8 8 8 7 7 7 7 7 8 10 12 10 8 8 8 7
10 10 10 10 10 10 10 10 10 10 9 9 11 11 10 10 10 10 10 9 9 9 8 9 9 9 8 10 13 9 7 7 7 8 8 8 10 12 13 14 12 11 9
10 11 11 10 11 11 10 10 11 10 10 10 11 11 11 11 11 11 9 9 9 9 9 9 9 10 11 14 13 13 8 8 8 8 8 7 7 9 8 10 12 13 13
10 11 10 11 11 11 11 11 11 10 11 11 12 11 11 11 10 10 10 10 9 8 8 9 9 9 11 14 14 14 9 8 9 9 9 9 8 8 8 8 8 9 10
10 10 11 12 11 12 12 12 12 12 12 12 12 11 11 11 10 10 10 9 8 8 8 8 9 9 10 13 14 12 6 7 9 9 9 9 9 10 10 9 8 8 7
9 10 11 11 12 12 12 12 13 12 13 13 12 11 11 11 11 11 10 8 8 9 8 8 8 9 10 12 13 12 5 7 7 7 7 10 10 10 11 9 8 9 7
12 12 12 11 12 12 11 12 13 13 13 12 12 11 11 11 11 10 9 8 7 7 7 8 8 8 10 11 12 11 6 7 7 6 6 6 10 11 12 10 8 8 7
11 12 11 12 12 12 12 13 14 14 13 12 12 12 11 10 10 8 8 7 7 7 7 7 7 6 7 8 9 11 10 9 7 6 6 6 9 10 11 9 8 8 8
11 11 12 13 13 12 11 14 15 13 12 12 11 10 10 9 8 8 8 6 5 5 5 5 5 5 4 5 9 10 10 10 7 6 7 7 8 7 7 8 9 9 6
11 11 12 14 14 13 13 13 14 12 11 11 10 9 8 8 7 6 5 5 5 5 5 5 5 5 4 4 4 4 4 5 6 4 4 5 6 5 5 5 7 6 6
10 10 12 14 15 15 14 14 13 11 12 11 10 8 7 7 6 5 4 5 5 5 5 4 4 4 4 5 7 5 4 4 4 3 2 2 3 4 4 4 4 5 6
12 12 13 14 15 15 15 14 12 11 11 10 8 6 5 5 5 5 5 5 6 7 8 8 6 5 6 6 6 6 6 5 6 4 3 3 4 4 4 5 5 4 5
Wind_Direction
40 39 36 41 50 49 53 46 37 11 23 41 59 315 308 277 276 259 239 228 205 204 205 199 188 183 184 187 186 175 187 208 182 285 315 308 292 273 254 255 248 249 251
36 37 36 35 37 38 39 43 35 31 28 35 39 210 271 292 283 297 288 294 234 220 215 196 195 196 195 193 186 180 173 193 170 161 122 331 334 333 336 310 259 265 262
36 31 33 34 41 43 43 54 52 45 31 23 38 32 24 4 3 353 350 352 345 306 258 221 202 202 201 205 205 191 183 192 200 188 168 175 247 303 317 322 317 305 288
32 30 29 25 35 40 44 56 56 57 44 42 55 55 53 28 339 326 333 339 338 313 295 268 236 219 209 216 216 196 189 177 197 205 210 201 182 201 302 310 308 310 292
30 26 16 8 11 23 36 47 56 58 53 61 68 69 59 43 321 333 343 345 333 322 310 276 251 240 224 222 220 203 200 193 191 188 182 195 212 210 218 270 299 307 284
25 10 348 334 335 349 5 23 55 39 27 51 67 85 72 30 4 340 335 333 321 318 327 311 283 262 247 236 225 214 210 207 201 199 191 183 188 199 205 235 261 280 280
273 268 285 292 293 300 305 314 346 324 333 9 12 14 177 182 279 287 307 313 309 300 306 313 296 277 263 254 238 222 220 211 206 206 207 205 209 196 195 221 248 265 281
276 263 263 268 272 273 274 274 269 268 268 259 259 258 246 229 236 242 244 260 267 271 278 283 279 277 270 261 244 234 228 217 215 218 212 214 215 207 202 204 215 257 268
280 275 273 268 264 266 268 265 265 268 267 258 251 251 248 242 243 247 244 246 250 261 270 277 280 279 272 263 248 238 235 223 220 221 218 221 220 213 213 210 207 217 250
287 283 276 273 271 268 273 276 265 261 266 266 259 255 248 245 246 248 251 248 249 251 263 270 273 273 270 264 251 244 238 230 227 222 220 224 223 218 217 216 216 215 224
287 285 285 283 281 281 278 275 272 269 268 264 261 262 260 255 250 247 248 248 249 248 249 253 259 263 262 259 249 245 241 233 236 232 224 230 223 219 219 217 217 218 217
290 286 284 287 288 280 275 271 269 266 264 262 259 258 260 260 256 254 253 249 249 249 246 247 249 254 253 247 244 249 248 240 241 240 233 234 228 223 220 217 220 221 219
296 289 289 287 283 279 276 274 272 268 268 266 263 263 261 257 254 253 253 250 247 250 249 244 242 246 247 245 241 239 245 243 240 240 240 239 230 228 223 221 221 221 222
289 286 286 284 282 280 278 278 278 276 276 272 267 264 261 258 255 254 253 250 244 243 245 241 239 239 241 242 241 237 241 244 245 242 241 241 235 232 226 222 222 217 217
292 289 286 285 285 286 284 281 280 280 279 275 271 267 265 262 259 256 254 251 246 243 240 241 241 238 236 238 235 233 236 237 246 251 248 245 244 239 229 222 215 210 212
287 289 289 289 289 288 287 286 283 281 279 274 272 272 269 265 260 257 253 250 248 245 239 239 241 240 240 238 234 229 232 236 241 249 253 253 253 249 236 227 216 207 208
289 292 292 288 287 287 286 284 284 286 284 279 278 276 273 270 265 262 258 252 250 247 241 240 238 239 241 240 240 239 233 234 238 241 247 254 250 239 234 229 223 218 216
291 294 294 291 289 288 289 288 290 289 287 284 281 279 276 273 270 263 257 253 250 248 246 243 239 238 244 241 239 242 239 236 239 239 240 242 248 239 226 224 221 221 220
289 291 290 292 293 295 295 296 295 292 289 285 281 279 277 275 271 266 260 256 252 250 246 245 239 237 246 244 240 237 232 237 243 243 240 237 241 236 222 219 221 221 226
295 295 297 299 300 299 300 300 298 297 293 291 288 286 283 277 272 267 262 256 248 251 251 248 242 238 242 243 240 234 222 233 242 244 240 235 234 231 215 215 216 219 217
296 298 302 303 300 302 304 301 300 296 294 294 291 288 285 280 275 269 262 255 249 248 247 248 248 243 241 243 239 231 215 221 233 238 237 234 227 226 216 210 213 218 205
302 305 306 305 305 305 306 304 300 298 297 296 293 289 287 285 285 272 265 256 247 245 247 247 250 248 242 236 238 234 224 216 222 232 234 233 226 225 217 210 207 201 191
305 307 307 308 310 309 308 305 303 303 303 301 297 294 293 289 284 276 270 263 247 242 243 241 244 248 239 234 235 238 235 225 220 230 231 230 227 225 221 210 192 187 191
309 310 312 314 315 315 313 307 307 309 308 305 301 298 296 295 291 281 270 260 248 240 238 239 240 243 241 238 230 227 229 227 221 225 222 218 223 218 202 187 186 195 193
309 312 316 315 316 317 316 314 314 315 311 307 303 300 296 295 295 289 275 263 249 236 234 239 236 233 241 239 222 207 206 200 199 186 189 193 197 201 190 184 180 179 177
315 318 318 318 318 319 317 317 318 318 314 310 308 302 298 298 295 296 296 271 258 257 245 242 240 237 239 250 235 220 211 198 180 178 193 196 201 203 187 176 168 170 170